Regional Weather Roundup
Issued by NWS

Home | Current Version | Previous Version | Graphics & Text | Print | Product List | Glossary On
Versions: 1 2 3 4 5 6 7 8 9 10 11 12 13 14 15 16 17 18 19 20 21 22 23 24 25 26 27 28 29 30 31 32 33 34 35 36 37 38 39 40 41 42 43 44 45 46 47 48 49 50
000
ASUS45 KBOU 271607
RWRCO

WEATHER ROUNDUP FOR COLORADO
NATIONAL WEATHER SERVICE DENVER/BOULDER CO
1000 AM MDT THU AUG 27 2015

NOTE: "FAIR" INDICATES FEW OR NO CLOUDS BELOW 12000 FEET WITH NO
SIGNIFICANT WEATHER AND/OR OBSTRUCTIONS TO VISIBILITY.

COZ001>005-013-030-031-271700-
...NORTHWEST COLORADO...

CITY           SKY/WX    TMP DP  RH WIND       PRES   REMARKS
CRAIG          CLOUDY    63  57  81 W10       30.32S
HAYDEN         NOT AVBL
MEEKER         CLOUDY    63  57  81 CALM      30.33S
MOUNT WERNER   NOT AVBL
STEAMBOAT SPGS CLOUDY    58  56  90 S7        30.34S
WALDEN         PTSUNNY   59  48  67 SW7       30.38R
$$

COZ006>008-011-271700-
...WEST CENTRAL VALLEYS...

CITY           SKY/WX    TMP DP  RH WIND       PRES   REMARKS
GRAND JUNCTION CLOUDY    64  62  93 E7        30.27S
MONTROSE       CLOUDY    65  59  81 CALM      30.34S
EAGLE          CLOUDY    61  55  82 CALM      30.37S FOG
RIFLE          LGT RAIN  64  59  83 CALM      30.31R
DELTA          RAIN      68  62  80 E5        30.31S
NUCLA          CLOUDY    66  55  68 CALM      30.38S
$$

COZ017>023-064>068-271700-
...SOUTHWEST COLORADO...

CITY           SKY/WX    TMP DP  RH WIND       PRES   REMARKS
DURANGO        CLOUDY    63  54  72 CALM      30.40S
CORTEZ         PTSUNNY   65  57  75 CALM      30.36S
PAGOSA SPRINGS CLOUDY    59  53  81 CALM      30.47R
TELLURIDE      CLOUDY    58  51  79 W7        30.55R
WOLF CREEK PAS RAIN      41  41 100 SW13      30.71S VSB<1/4
$$

COZ009-010-012-014-032>034-037-058>063-271700-
...CENTRAL COLORADO...

CITY           SKY/WX    TMP DP  RH WIND       PRES   REMARKS
ASPEN          PTSUNNY   59  53  80 SE6       30.41F
BUENA VISTA    CLOUDY    64  46  51 NW5       30.38F
COPPER MTN     LGT RAIN  46  41  81 W12G17    30.64S VSB<1/4
BERTHOUD PASS  HAZE      39  28  65 W20G37    30.65S VSB<1/4
COTTONWOOD PAS PTSUNNY   57  41  54 W21G32    30.50F
GUNNISON       CLOUDY    55  52  88 NE3       30.46S
KREMMLING      RAIN      55  52  88 CALM      30.39S
LEADVILLE      CLOUDY    56  41  57 NW12G17   30.51R
MONARCH PASS   RAIN      43  41  93 W31G40    30.74R VSB<1/4
SALIDA         CLOUDY    70  50  48 SW17G24   30.43S
SUNLIGHT       FOG       50  50 100 CALM      30.61S VSB<1/4
WILKERSON PASS CLOUDY    50  43  76 W7        30.60S
$$

COZ069>075-271700-
...SAN LUIS VALLEY/SANGRE DE CRISTO MOUNTAINS...

CITY           SKY/WX    TMP DP  RH WIND       PRES   REMARKS
ALAMOSA        MOSUNNY   61  50  67 VRB3      30.41S
LA VETA PASS   MOSUNNY   55  43  62 MISG      30.51S
SAGUACHE       CLOUDY    59  50  72 CALM      30.44S
$$

COZ035-036-038>040-271700-
...NORTHERN COLORADO FRONT RANGE...

CITY           SKY/WX    TMP DP  RH WIND       PRES   REMARKS
DENVER INTL AP PTSUNNY   78  47  33 N6        30.16S
DMNS CITY PARK   N/A     77  51  41 SE5G10    30.15S
AURORA         PTSUNNY   77  48  36 VRB5      30.18S
FRONT RANGE AP PTSUNNY   77  46  33 N6        30.18S
ERIE MUNI ARPT PTSUNNY   77  48  35 CALM      30.14S
BOULDER MUN AP PTSUNNY   77  52  41 SE6       30.15S
CENTENNIAL     PTSUNNY   75  49  39 W3        30.19S
BROOMFIELD     PTSUNNY   77  48  36 NW17      30.18
FORT COLLINS   PTSUNNY   75  54  46 N6        30.14F
LONGMONT       PTSUNNY   78  51  39 NE3       30.15S
$$

COZ041-046-047-076>085-087-088-271700-
...PIKES PEAK/PALMER DIVIDE AND SOUTHERN FOOTHILLS...

CITY           SKY/WX    TMP DP  RH WIND       PRES   REMARKS
COLO. SPRINGS  PTSUNNY   76  47  35 SW6       30.22R
A. F. ACADEMY  PTSUNNY   74  46  36 W6        30.23R
ELLICOTT       MOSUNNY  N/A N/A N/A N3        30.20R
FALCON         MOSUNNY   75  43  31 W9        30.27S
FORT CARSON    PTSUNNY   74  51  45 W2        30.19R
LIMON          MOSUNNY   76  50  40 NW15      30.15R
MONUMENT HILL  PTSUNNY   73  43  33 NW7       30.28R
TRINIDAD       MOSUNNY   80  47  31 VRB6      30.21S
$$

COZ042>045-048>051-090-091-271700-
...NORTHEAST COLORADO...

CITY           SKY/WX    TMP DP  RH WIND       PRES   REMARKS
GREELEY ARPT   PTSUNNY   79  54  41 NW14      30.13S
AKRON          PTSUNNY   77  52  41 NW21G29   30.07S
BURLINGTON     MOSUNNY   81  49  32 NW23G31   30.04S
WRAY           PTSUNNY   83  52  34 NW20      29.97S
STERLING       PTSUNNY   82  52  34 NW24G31   30.01F
HOLYOKE        PTSUNNY   79  61  53 NW13G18   29.97S
FORT MORGAN    PTSUNNY   81  47  30 NW20G26   30.08F
$$

COZ086-089-092>099-271700-
...SOUTHEAST COLORADO...

CITY           SKY/WX    TMP DP  RH WIND       PRES   REMARKS
PUEBLO         CLOUDY    84  48  28 W15       30.10F
LA JUNTA       SUNNY     87  48  25 VRB3      30.08R
LAMAR          MOSUNNY   86  53  32 NW6       30.03S
SPRINGFIELD      N/A     84  51  31 SW16G23   30.09F
$$




USA.gov is the U.S. government's official web portal to all federal, state and local government web resources and services.